Location: Lanoux
(43.1180°N, 1.4255°E)
Time: 09:34:53
(UTC+00:00)

SL-16 R/B - Pass Details

Date: 13 December 2025
Orbit: 841 x 844 km, 71.0° (Epoch: 21 January)

Event Time Altitude Azimuth Distance (km) Brightness Sun altitude
Rises 19:04:37 0° 204° (SSW) 3,383 5.7 -29.2°
Reaches altitude 10° 19:07:03 10° 205° (SSW) 2,452 4.9 -29.6°
Enters shadow 19:11:27 57° 210° (SSW) 988 2.6 -30.4°
